Location: Lussas
(44.6119°N, 4.4726°E)
Time: 16:30:51
(UTC+00:00)

Cosmos 2263 Rocket - Pass Details

Date: 26 November 2020
Orbit: 823 x 848 km, 71.0° (Epoch: 28 January)

Event Time Altitude Azimuth Distance (km) Brightness Sun altitude
Exits shadow 05:27:19 14° 245° (WSW) 2,216 3.9 -15.0°
Maximum altitude 05:31:41 34° 306° (NW) 1,364 2.8 -14.2°
Drops below altitude 10° 05:36:50 10° 11° (N) 2,481 4.6 -13.3°
Sets 05:39:32 0° 20° (NNE) 3,421 5.4 -12.9°
